This demonstration page uses our WeatherBlox Daily Observations layout. Learn more.

Hourly Observations for March 28, 2016

Temp ( °F °C ) Dew Point ( °F °C ) Humidity (%) Winds ( mph kmh ) Pressure ( in mb ) Visibility ( mi km ) Precip ( " mm )
12:15 am 00:15 Clear 39 4 18 -7.8 42 42 S 6 9 30.06 1018 10 16.0934 0 0
12:35 am 00:35 Clear 39 3.7 18 -7.7 43 43 SSW 8 13 30.06 1018 10 16.0934 0 0
12:55 am 00:55 Clear 38 3.6 18 -8 43 43 S 8 13 30.06 1018 10 16.0934 0 0
1:15 am 01:15 Clear 38 3.6 17 -8.1 42 42 SSW 7 11 30.06 1018 10 16.0934 0 0
1:35 am 01:35 Clear 38 3.5 17 -8.2 42 42 SSW 7 11 30.06 1018 10 16.0934 0 0
1:55 am 01:55 Clear 38 3.1 17 -8.2 44 44 SSW 7 11 30.06 1018 10 16.0934 0 0
2:15 am 02:15 Clear 37 2.6 18 -8 46 46 S 9 15 30.09 1019 10 16.0934 0 0
2:35 am 02:35 Clear 36 2.1 18 -7.7 49 49 SSW 7 11 30.09 1019 10 16.0934 0 0
2:55 am 02:55 Clear 35 1.6 18 -8 49 49 SSW 8 13 30.09 1019 10 16.0934 0 0
3:15 am 03:15 Clear 36 2.3 17 -8.1 47 47 SSW 9 15 30.06 1018 10 16.0934 0 0
3:35 am 03:35 Clear 37 3 17 -8.5 43 43 SSW 8 13 30.03 1017 10 16.0934 0 0
3:55 am 03:55 Clear 37 2.6 18 -8 46 46 SW 7 11 30.03 1017 10 16.0934 0 0
4:15 am 04:15 Clear 36 2.2 18 -8 47 47 SW 8 13 30.06 1018 10 16.0934 0 0
4:35 am 04:35 Clear 35 1.6 18 -7.7 50 50 SW 8 13 30.06 1018 10 16.0934 0 0
4:55 am 04:55 Clear 36 2.2 19 -7.5 49 49 SW 8 13 30.06 1018 10 16.0934 0 0
5:15 am 05:15 Clear 37 2.6 19 -7 50 50 SW 8 13 30.03 1017 10 16.0934 0 0
5:35 am 05:35 Clear 37 2.5 20 -6.7 51 51 SW 10 17 30.03 1017 10 16.0934 0 0
5:55 am 05:55 Clear 38 3.5 21 -6.1 50 50 SW 9 15 30.03 1017 10 16.0934 0 0
6:15 am 06:15 Clear 36 2 20 -6.5 54 54 SSW 10 17 30.06 1018 10 16.0934 0 0
6:35 am 06:35 Clear 34 1.1 20 -6.5 57 57 SSW 10 17 30.06 1018 10 16.0934 0 0
6:55 am 06:55 Clear 34 1.2 21 -6.1 59 59 SSW 9 15 30.06 1018 10 16.0934 0 0
7:15 am 07:15 Clear 35 1.5 21 -6 58 58 SSW 10 17 30.06 1018 10 16.0934 0 0
7:35 am 07:35 Sunny 34 1 21 -6 60 60 SSW 10 17 30.06 1018 10 16.0934 0 0
7:55 am 07:55 Sunny 37 2.7 22 -5.5 55 55 SSW 13 20 30.09 1019 10 16.0934 0 0
8:15 am 08:15 Sunny 38 3.5 22 -5.5 52 52 SSW 12 19 30.06 1018 10 16.0934 0 0
8:35 am 08:35 Sunny 40 4.4 22 -5.3 50 50 SSW 10 17 30.06 1018 10 16.0934 0 0
8:55 am 08:55 Sunny 42 5.7 23 -5 46 46 SSW 10 17 30.06 1018 10 16.0934 0 0
9:15 am 09:15 Sunny 45 7.4 24 -4.5 43 43 SW 13 20 30 1016 10 16.0934 0 0
9:35 am 09:35 Sunny 49 9.3 24 -4.5 38 38 SW 12 19 29.97 1015 10 16.0934 0 0
9:55 am 09:55 Sunny 51 10.5 23 -4.8 34 34 SW 14 22 29.97 1015 10 16.0934 0 0
10:15 am 10:15 Sunny 51 10.7 23 -4.8 34 34 SSW 14 22 29.97 1015 10 16.0934 0 0
10:35 am 10:35 Sunny 53 11.5 24 -4.2 33 33 SSW 17 28 29.97 1015 10 16.0934 0 0
10:55 am 10:55 Sunny 55 12.6 24 -4.2 31 31 SSW 14 22 29.94 1014 10 16.0934 0 0
11:15 am 11:15 Sunny 58 14.2 24 -4.3 28 28 SSW 21 33 29.94 1014 10 16.0934 0 0
11:35 am 11:35 Sunny 59 15.2 24 -4.2 26 26 S 17 28 29.94 1014 10 16.0934 0 0
11:55 am 11:55 Sunny 60 15.5 23 -5 24 24 SSW 21 33 29.94 1014 10 16.0934 0 0
12:15 pm 12:15 Sunny 61 16.2 24 -4.3 24 24 S 21 33 29.88 1012 10 16.0934 0 0
12:35 pm 12:35 Sunny 61 16.3 24 -4.4 24 24 S 24 39 29.88 1012 10 16.0934 0 0
12:55 pm 12:55 Sunny 61 16.1 25 -4.1 25 25 S 21 33 29.88 1012 10 16.0934 0 0
1:15 pm 13:15 Sunny 62 16.5 26 -3.6 25 25 S 18 30 29.88 1012 10 16.0934 0 0
1:35 pm 13:35 Sunny 62 16.5 26 -3.4 26 26 S 20 31 29.88 1012 10 16.0934 0 0
1:55 pm 13:55 Sunny 63 17.2 27 -2.9 25 25 S 23 37 29.85 1011 10 16.0934 0 0
2:15 pm 14:15 Sunny 63 17.4 28 -2.3 26 26 S 20 31 29.85 1011 10 16.0934 0 0
2:35 pm 14:35 Sunny 64 17.8 28 -2 26 26 S 21 33 29.85 1011 10 16.0934 0 0
2:55 pm 14:55 Sunny 65 18.6 29 -1.6 26 26 S 20 31 29.83 1010 10 16.0934 0 0
3:15 pm 15:15 Sunny 65 18.3 29 -1.7 26 26 S 16 26 29.8 1009 10 16.0934 0 0
3:35 pm 15:35 Sunny 66 18.7 30 -1.3 26 26 SSE 23 37 29.8 1009 10 16.0934 0 0
3:55 pm 15:55 Sunny 66 19 30 -1.3 25 25 S 17 28 29.8 1009 10 16.0934 0 0
4:15 pm 16:15 Sunny 65 18.6 30 -1 27 27 S 18 30 29.77 1008 10 16.0934 0 0
4:35 pm 16:35 Sunny 66 19 31 -0.7 27 27 S 20 31 29.77 1008 10 16.0934 0 0
4:55 pm 16:55 Sunny 67 19.3 31 -0.8 26 26 S 24 39 29.77 1008 10 16.0934 0 0
5:15 pm 17:15 Sunny 67 19.2 31 -0.6 26 26 S 22 35 29.74 1007 10 16.0934 0 0
5:35 pm 17:35 Sunny 66 19.1 31 -0.6 27 27 S 22 35 29.74 1007 10 16.0934 0 0
5:55 pm 17:55 Sunny 66 18.9 31 -0.5 27 27 S 15 24 29.74 1007 10 16.0934 0 0
6:15 pm 18:15 Sunny 66 19 31 -0.4 27 27 S 17 28 29.74 1007 10 16.0934 0 0
6:35 pm 18:35 Sunny 65 18.5 32 -0.1 29 29 SSE 18 30 29.74 1007 10 16.0934 0 0
6:55 pm 18:55 Sunny 64 17.7 31 -0.3 30 30 SSE 23 37 29.8 1009 10 16.0934 0 0
7:15 pm 19:15 Sunny 62 16.8 31 -0.6 31 31 SE 18 30 29.8 1009 10 16.0934 0 0
7:35 pm 19:35 Sunny 61 15.9 30 -1 32 32 SE 17 28 29.8 1009 10 16.0934 0 0
7:55 pm 19:55 Sunny 58 14.6 30 -1.2 34 34 SE 15 24 29.8 1009 10 16.0934 0 0
8:15 pm 20:15 Clear 56 13.6 29 -1.6 35 35 SSE 15 24 29.85 1011 10 16.0934 0 0
8:35 pm 20:35 Clear 55 12.5 29 -1.7 38 38 SE 13 20 29.85 1011 10 16.0934 0 0
8:55 pm 20:55 Clear 53 11.9 26 -3.1 35 35 SE 14 22 29.85 1011 10 16.0934 0 0
9:15 pm 21:15 Clear 51 10.4 27 -3 39 39 SE 12 19 29.88 1012 10 16.0934 0 0
9:35 pm 21:35 Clear 51 10.3 26 -3.1 39 39 SE 14 22 29.88 1012 10 16.0934 0 0
9:55 pm 21:55 Clear 50 10.2 27 -3 40 40 SE 16 26 29.88 1012 10 16.0934 0 0
10:15 pm 22:15 Clear 50 9.8 28 -2.5 42 42 SE 15 24 29.91 1013 10 16.0934 0 0
10:35 pm 22:35 Clear 49 9.7 28 -2.3 43 43 SE 16 26 29.91 1013 10 16.0934 0 0
10:55 pm 22:55 Clear 49 9.5 28 -2.5 43 43 SE 14 22 29.91 1013 10 16.0934 0 0
11:15 pm 23:15 Partly Cloudy 49 9.6 27 -2.8 42 42 SE 14 22 29.91 1013 10 16.0934 0 0
11:35 pm 23:35 Partly Cloudy 49 9.4 27 -3 42 42 SE 13 20 29.91 1013 10 16.0934 0 0
11:55 pm 23:55 Partly Cloudy 49 9.7 26 -3.5 40 40 SE 14 22 29.91 1013 10 16.0934 0 0

Powered by AerisWeather